Wetterdaten: Samstag, 26.03.2016
Datum Zeit Auen-Temp. Temp gefhlt Luftfeuchte Luftdruck Regen Wind Richtung Richtung Sonnenschein Taupunkt Windben
26.03.2016 00:00 3,1 C 2,3 C 90 % 1015,8 hPa 0,0 mm 13,1 km/h (3 Bft) W 270 0 min 1,6 C 5,7 km/h (1 Bft)
26.03.2016 00:05 3,1 C 2,4 C 90 % 1015,8 hPa 0,7 mm 10,4 km/h (2 Bft) W 270 0 min 1,6 C 15,8 km/h (3 Bft)
26.03.2016 00:10 3,2 C 2,5 C 90 % 1015,9 hPa 0,0 mm 11,0 km/h (2 Bft) W-SW 247 0 min 1,7 C 15,5 km/h (3 Bft)
26.03.2016 00:15 3,2 C 2,3 C 90 % 1015,9 hPa 0,7 mm 12,8 km/h (3 Bft) NW 315 0 min 1,7 C 23,8 km/h (4 Bft)
26.03.2016 00:20 3,3 C 2,4 C 90 % 1015,9 hPa 0,0 mm 13,7 km/h (3 Bft) W-SW 247 0 min 1,8 C 32,8 km/h (5 Bft)
26.03.2016 00:25 3,3 C 2,4 C 91 % 1015,9 hPa 0,7 mm 14,0 km/h (3 Bft) W-NW 292 0 min 2,0 C 35,8 km/h (5 Bft)
26.03.2016 00:30 3,4 C 2,7 C 91 % 1015,9 hPa 0,0 mm 14,6 km/h (3 Bft) W 270 0 min 2,1 C 10,1 km/h (2 Bft)
26.03.2016 00:35 3,4 C 2,7 C 91 % 1015,9 hPa 0,0 mm 14,6 km/h (3 Bft) W-SW 247 0 min 2,1 C 32,8 km/h (5 Bft)
26.03.2016 00:40 3,5 C 2,6 C 91 % 1015,9 hPa 0,0 mm 14,0 km/h (3 Bft) W-SW 247 0 min 2,2 C 19,1 km/h (3 Bft)
26.03.2016 00:45 3,6 C 2,9 C 91 % 1015,9 hPa 0,0 mm 14,9 km/h (3 Bft) W 270 0 min 2,3 C 40,5 km/h (6 Bft)
26.03.2016 00:50 3,6 C 2,9 C 91 % 1016,2 hPa 0,0 mm 14,9 km/h (3 Bft) W-NW 292 0 min 2,3 C 16,7 km/h (3 Bft)
26.03.2016 00:55 3,6 C 2,8 C 91 % 1016,2 hPa 0,7 mm 13,7 km/h (3 Bft) W-SW 247 0 min 2,3 C 24,7 km/h (4 Bft)
26.03.2016 01:00 3,6 C 3,0 C 91 % 1016,2 hPa 0,0 mm 14,3 km/h (3 Bft) W 270 0 min 2,3 C 13,1 km/h (3 Bft)
26.03.2016 01:05 3,6 C 2,8 C 91 % 1016,2 hPa 0,0 mm 13,4 km/h (3 Bft) W-NW 292 0 min 2,3 C 17,0 km/h (3 Bft)
26.03.2016 01:08 3,6 C 2,8 C 91 % 1016,2 hPa 0,0 mm 13,4 km/h (3 Bft) W-NW 292 0 min 2,3 C 17,0 km/h (3 Bft)
26.03.2016 01:10 3,6 C 2,8 C 91 % 1016,2 hPa 0,0 mm 12,5 km/h (3 Bft) W-SW 247 0 min 2,3 C 8,6 km/h (2 Bft)
26.03.2016 01:15 3,6 C 3,0 C 91 % 1016,2 hPa 0,0 mm 10,7 km/h (2 Bft) W-NW 292 0 min 2,3 C 6,6 km/h (2 Bft)
26.03.2016 01:20 3,6 C 3,0 C 91 % 1016,2 hPa 0,0 mm 9,8 km/h (2 Bft) S-SW 202 0 min 2,3 C 13,4 km/h (3 Bft)
26.03.2016 01:25 3,6 C 3,0 C 91 % 1016,2 hPa 0,0 mm 9,8 km/h (2 Bft) W-SW 247 0 min 2,3 C 18,5 km/h (3 Bft)
26.03.2016 01:30 3,6 C 2,8 C 91 % 1016,4 hPa 0,7 mm 13,1 km/h (3 Bft) W 270 0 min 2,3 C 22,4 km/h (4 Bft)
26.03.2016 01:35 3,6 C 2,9 C 91 % 1016,4 hPa 0,0 mm 15,5 km/h (3 Bft) W-SW 247 0 min 2,3 C 15,5 km/h (3 Bft)
26.03.2016 01:40 3,6 C 2,7 C 91 % 1016,4 hPa 0,0 mm 14,0 km/h (3 Bft) W-NW 292 0 min 2,3 C 23,8 km/h (4 Bft)
26.03.2016 01:45 3,6 C 2,8 C 91 % 1016,4 hPa 0,7 mm 12,8 km/h (3 Bft) NW 315 0 min 2,3 C 8,3 km/h (2 Bft)
26.03.2016 01:50 3,6 C 2,8 C 91 % 1016,2 hPa 0,0 mm 11,9 km/h (2 Bft) SW 225 0 min 2,3 C 13,4 km/h (3 Bft)
26.03.2016 01:55 3,5 C 2,8 C 91 % 1016,2 hPa 0,0 mm 10,1 km/h (2 Bft) W-SW 247 0 min 2,2 C 14,3 km/h (3 Bft)
26.03.2016 02:00 3,4 C 2,8 C 91 % 1016,2 hPa 0,0 mm 9,5 km/h (2 Bft) NW 315 0 min 2,1 C 14,0 km/h (3 Bft)
26.03.2016 02:05 3,3 C 2,8 C 91 % 1016,2 hPa 0,0 mm 8,6 km/h (2 Bft) NW 315 0 min 2,0 C 17,3 km/h (3 Bft)
26.03.2016 02:10 3,3 C 2,7 C 91 % 1016,4 hPa 0,7 mm 9,5 km/h (2 Bft) W-SW 247 0 min 2,0 C 11,9 km/h (2 Bft)
26.03.2016 02:15 3,3 C 2,7 C 91 % 1016,4 hPa 0,0 mm 8,9 km/h (2 Bft) W-SW 247 0 min 2,0 C 5,7 km/h (1 Bft)
26.03.2016 02:20 3,2 C 2,9 C 91 % 1016,4 hPa 0,0 mm 6,6 km/h (2 Bft) SW 225 0 min 1,9 C 7,7 km/h (2 Bft)
26.03.2016 02:25 3,2 C 2,8 C 91 % 1016,4 hPa 0,7 mm 6,9 km/h (2 Bft) W 270 0 min 1,9 C 17,9 km/h (3 Bft)
26.03.2016 02:30 3,2 C 2,8 C 91 % 1016,4 hPa 0,0 mm 7,7 km/h (2 Bft) W 270 0 min 1,9 C 9,2 km/h (2 Bft)
26.03.2016 02:35 3,2 C 2,9 C 91 % 1016,4 hPa 0,0 mm 6,0 km/h (2 Bft) W 270 0 min 1,9 C 4,8 km/h (1 Bft)
26.03.2016 02:40 3,4 C 2,9 C 91 % 1016,4 hPa 0,7 mm 8,0 km/h (2 Bft) W 270 0 min 2,1 C 10,7 km/h (2 Bft)
26.03.2016 02:45 3,4 C 2,8 C 91 % 1016,4 hPa 0,0 mm 9,8 km/h (2 Bft) N-NO 22 0 min 2,1 C 7,5 km/h (2 Bft)
26.03.2016 02:50 3,4 C 2,9 C 91 % 1016,3 hPa 0,0 mm 8,3 km/h (2 Bft) W 270 0 min 2,1 C 10,1 km/h (2 Bft)
26.03.2016 02:55 3,5 C 2,9 C 91 % 1016,3 hPa 0,0 mm 10,1 km/h (2 Bft) W-SW 247 0 min 2,2 C 9,8 km/h (2 Bft)
26.03.2016 03:00 3,4 C 2,8 C 91 % 1016,3 hPa 0,0 mm 9,8 km/h (2 Bft) W-SW 247 0 min 2,1 C 6,9 km/h (2 Bft)
26.03.2016 03:05 3,4 C 2,9 C 91 % 1016,3 hPa 0,0 mm 8,9 km/h (2 Bft) NW 315 0 min 2,1 C 16,7 km/h (3 Bft)
26.03.2016 03:10 3,4 C 2,7 C 91 % 1016,4 hPa 0,7 mm 10,7 km/h (2 Bft) W 270 0 min 2,1 C 10,1 km/h (2 Bft)
26.03.2016 03:15 3,3 C 2,6 C 91 % 1016,4 hPa 0,0 mm 10,7 km/h (2 Bft) W-SW 247 0 min 2,0 C 12,8 km/h (3 Bft)
26.03.2016 03:20 3,3 C 2,6 C 91 % 1016,4 hPa 0,7 mm 11,0 km/h (2 Bft) W 270 0 min 2,0 C 15,2 km/h (3 Bft)
26.03.2016 03:25 3,2 C 2,6 C 91 % 1016,4 hPa 0,0 mm 9,5 km/h (2 Bft) NW 315 0 min 1,9 C 8,3 km/h (2 Bft)
26.03.2016 03:30 3,2 C 2,7 C 91 % 1016,4 hPa 0,7 mm 8,0 km/h (2 Bft) NW 315 0 min 1,9 C 14,6 km/h (3 Bft)
26.03.2016 03:35 3,1 C 2,8 C 91 % 1016,4 hPa 0,0 mm 6,3 km/h (2 Bft) W-SW 247 0 min 1,8 C 5,7 km/h (1 Bft)
26.03.2016 03:40 3,1 C 2,9 C 91 % 1016,4 hPa 0,0 mm 5,4 km/h (1 Bft) NW 315 0 min 1,8 C 7,7 km/h (2 Bft)
26.03.2016 03:45 3,0 C 2,5 C 91 % 1016,4 hPa 0,7 mm 7,7 km/h (2 Bft) NW 315 0 min 1,7 C 15,8 km/h (3 Bft)
26.03.2016 03:50 2,8 C 2,3 C 92 % 1016,6 hPa 0,0 mm 8,9 km/h (2 Bft) W 270 0 min 1,6 C 21,2 km/h (4 Bft)
26.03.2016 03:55 2,5 C 1,9 C 92 % 1016,6 hPa 0,7 mm 9,8 km/h (2 Bft) W-NW 292 0 min 1,3 C 17,0 km/h (3 Bft)
26.03.2016 04:00 2,5 C 1,8 C 92 % 1016,6 hPa 0,0 mm 10,1 km/h (2 Bft) W-NW 292 0 min 1,3 C 8,9 km/h (2 Bft)
26.03.2016 04:05 2,5 C 2,1 C 91 % 1016,6 hPa 0,7 mm 6,3 km/h (2 Bft) W 270 0 min 1,2 C 3,9 km/h (1 Bft)
26.03.2016 04:08 2,4 C 2,2 C 91 % 1016,8 hPa 0,0 mm 3,0 km/h (1 Bft) SW 225 0 min 1,1 C 0,0 km/h (0 Bft)
26.03.2016 04:09 2,4 C 2,2 C 91 % 1016,8 hPa 0,0 mm 3,0 km/h (1 Bft) SW 225 0 min 1,1 C 0,0 km/h (0 Bft)
26.03.2016 04:10 2,4 C 2,2 C 91 % 1016,8 hPa 0,0 mm 3,0 km/h (1 Bft) SW 225 0 min 1,1 C 0,0 km/h (0 Bft)
26.03.2016 04:15 2,4 C 2,2 C 91 % 1016,8 hPa 0,0 mm 1,5 km/h (1 Bft) W-SW 247 0 min 1,1 C 0,0 km/h (0 Bft)
26.03.2016 04:20 2,4 C 2,2 C 91 % 1016,8 hPa 0,0 mm 2,4 km/h (1 Bft) W-SW 247 0 min 1,1 C 6,9 km/h (2 Bft)
26.03.2016 04:25 2,5 C 2,3 C 91 % 1016,8 hPa 0,0 mm 4,2 km/h (1 Bft) W-NW 292 0 min 1,2 C 0,0 km/h (0 Bft)
26.03.2016 04:30 2,5 C 2,3 C 92 % 1017,0 hPa 0,0 mm 4,2 km/h (1 Bft) NW 315 0 min 1,3 C 0,0 km/h (0 Bft)
26.03.2016 04:35 2,5 C 2,3 C 92 % 1017,0 hPa 0,7 mm 1,8 km/h (1 Bft) N-NW 337 0 min 1,3 C 4,2 km/h (1 Bft)
26.03.2016 04:40 2,5 C 2,3 C 92 % 1017,0 hPa 0,0 mm 1,2 km/h (1 Bft) W-SW 247 0 min 1,3 C 0,0 km/h (0 Bft)
26.03.2016 04:45 2,3 C 2,1 C 92 % 1017,0 hPa 0,7 mm 5,4 km/h (1 Bft) W 270 0 min 1,1 C 12,5 km/h (3 Bft)
26.03.2016 04:50 2,2 C 1,6 C 92 % 1017,4 hPa 0,0 mm 8,6 km/h (2 Bft) NW 315 0 min 1,0 C 9,5 km/h (2 Bft)
26.03.2016 04:55 2,1 C 1,4 C 92 % 1017,4 hPa 0,0 mm 9,8 km/h (2 Bft) W 270 0 min 0,9 C 5,1 km/h (1 Bft)
26.03.2016 05:00 2,1 C 1,5 C 92 % 1017,4 hPa 0,0 mm 8,0 km/h (2 Bft) SW 225 0 min 0,9 C 8,3 km/h (2 Bft)
26.03.2016 05:05 2,1 C 1,7 C 92 % 1017,4 hPa 0,0 mm 6,3 km/h (2 Bft) W-NW 292 0 min 0,9 C 8,9 km/h (2 Bft)
26.03.2016 05:10 2,1 C 1,8 C 92 % 1017,6 hPa 0,0 mm 5,7 km/h (1 Bft) W-SW 247 0 min 0,9 C 5,4 km/h (1 Bft)
26.03.2016 05:15 2,3 C 1,9 C 92 % 1017,6 hPa 0,0 mm 6,0 km/h (2 Bft) W 270 0 min 1,1 C 13,1 km/h (3 Bft)
26.03.2016 05:20 2,3 C 1,9 C 92 % 1017,6 hPa 0,0 mm 6,9 km/h (2 Bft) NW 315 0 min 1,1 C 6,9 km/h (2 Bft)
26.03.2016 05:25 2,4 C 2,0 C 92 % 1017,6 hPa 0,7 mm 6,9 km/h (2 Bft) W-SW 247 0 min 1,2 C 10,4 km/h (2 Bft)
26.03.2016 05:30 2,4 C 2,1 C 92 % 1017,9 hPa 0,0 mm 6,0 km/h (2 Bft) SW 225 0 min 1,2 C 7,2 km/h (2 Bft)
26.03.2016 05:35 2,5 C 2,1 C 92 % 1017,9 hPa 0,0 mm 6,6 km/h (2 Bft) W 270 0 min 1,3 C 6,9 km/h (2 Bft)
26.03.2016 05:40 2,6 C 2,1 C 92 % 1017,9 hPa 0,0 mm 7,2 km/h (2 Bft) W 270 0 min 1,4 C 8,6 km/h (2 Bft)
26.03.2016 05:45 2,6 C 2,3 C 92 % 1017,9 hPa 0,0 mm 6,3 km/h (2 Bft) W 270 0 min 1,4 C 5,1 km/h (1 Bft)
26.03.2016 05:50 2,6 C 2,4 C 92 % 1018,3 hPa 0,0 mm 4,8 km/h (1 Bft) W-SW 247 0 min 1,4 C 5,1 km/h (1 Bft)
26.03.2016 05:55 2,6 C 2,4 C 92 % 1018,3 hPa 0,0 mm 4,5 km/h (1 Bft) W-SW 247 0 min 1,4 C 7,5 km/h (2 Bft)
26.03.2016 06:00 2,6 C 2,4 C 92 % 1018,3 hPa 0,0 mm 5,4 km/h (1 Bft) W 270 0 min 1,4 C 8,0 km/h (2 Bft)
26.03.2016 06:05 2,6 C 2,4 C 92 % 1018,3 hPa 0,0 mm 5,4 km/h (1 Bft) W-SW 247 0 min 1,4 C 5,7 km/h (1 Bft)
26.03.2016 06:10 2,6 C 2,4 C 92 % 1018,8 hPa 0,0 mm 5,1 km/h (1 Bft) W-NW 292 0 min 1,4 C 3,6 km/h (1 Bft)
26.03.2016 06:15 2,6 C 2,5 C 92 % 1018,8 hPa 0,0 mm 4,2 km/h (1 Bft) W 270 0 min 1,4 C 5,1 km/h (1 Bft)
26.03.2016 06:20 2,6 C 2,4 C 92 % 1018,8 hPa 0,7 mm 3,9 km/h (1 Bft) W 270 0 min 1,4 C 4,5 km/h (1 Bft)
26.03.2016 06:25 2,6 C 2,4 C 92 % 1018,8 hPa 0,0 mm 3,9 km/h (1 Bft) S-SO 157 0 min 1,4 C 0,0 km/h (0 Bft)
26.03.2016 06:30 2,6 C 2,4 C 92 % 1018,9 hPa 0,0 mm 3,0 km/h (1 Bft) W 270 0 min 1,4 C 6,0 km/h (2 Bft)
26.03.2016 06:35 2,6 C 2,4 C 92 % 1018,9 hPa 0,0 mm 1,5 km/h (1 Bft) W 270 0 min 1,4 C 8,0 km/h (2 Bft)
26.03.2016 06:40 2,6 C 2,4 C 92 % 1018,9 hPa 0,0 mm 1,2 km/h (1 Bft) SW 225 0 min 1,4 C 0,0 km/h (0 Bft)
26.03.2016 06:45 2,6 C 2,4 C 92 % 1018,9 hPa 0,7 mm 1,5 km/h (1 Bft) W-SW 247 0 min 1,4 C 3,9 km/h (1 Bft)
26.03.2016 06:50 2,6 C 2,4 C 92 % 1019,1 hPa 0,0 mm 0,9 km/h (0 Bft) W 270 0 min 1,4 C 0,0 km/h (0 Bft)
26.03.2016 06:55 2,6 C 2,4 C 92 % 1019,1 hPa 0,0 mm 2,7 km/h (1 Bft) NW 315 0 min 1,4 C 8,0 km/h (2 Bft)
26.03.2016 07:00 2,6 C 2,4 C 92 % 1019,1 hPa 0,0 mm 3,3 km/h (1 Bft) W-SW 247 0 min 1,4 C 0,0 km/h (0 Bft)
26.03.2016 07:05 2,6 C 2,4 C 92 % 1019,1 hPa 0,7 mm 1,5 km/h (1 Bft) NW 315 0 min 1,4 C 0,0 km/h (0 Bft)
26.03.2016 07:08 2,6 C 2,4 C 92 % 1019,4 hPa 0,0 mm 0,6 km/h (0 Bft) W-NW 292 0 min 1,4 C 4,8 km/h (1 Bft)
26.03.2016 07:10 2,6 C 2,4 C 92 % 1019,4 hPa 0,0 mm 0,6 km/h (0 Bft) W-NW 292 0 min 1,4 C 4,8 km/h (1 Bft)
26.03.2016 07:15 2,6 C 2,4 C 92 % 1019,4 hPa 0,0 mm 1,2 km/h (1 Bft) W 270 0 min 1,4 C 0,0 km/h (0 Bft)
26.03.2016 07:20 2,6 C 2,4 C 92 % 1019,4 hPa 0,0 mm 1,2 km/h (1 Bft) W 270 0 min 1,4 C 0,0 km/h (0 Bft)
26.03.2016 07:25 2,5 C 2,4 C 87 % 1019,4 hPa 0,0 mm 0,6 km/h (0 Bft) W 270 0 min 0,6 C 9,2 km/h (2 Bft)
26.03.2016 07:30 2,5 C 2,4 C 92 % 1019,4 hPa 0,0 mm 0,9 km/h (0 Bft) SW 225 0 min 1,3 C 0,0 km/h (0 Bft)
26.03.2016 07:35 2,5 C 2,4 C 87 % 1019,4 hPa 0,0 mm 2,4 km/h (1 Bft) S 180 0 min 0,6 C 7,5 km/h (2 Bft)
26.03.2016 07:40 2,5 C 2,5 C 87 % 1019,4 hPa 0,0 mm 2,7 km/h (1 Bft) SO 135 0 min 0,6 C 0,0 km/h (0 Bft)
26.03.2016 07:45 2,7 C 2,9 C 87 % 1019,4 hPa 0,0 mm 2,7 km/h (1 Bft) W 270 0 min 0,8 C 0,0 km/h (0 Bft)
26.03.2016 07:50 2,7 C 2,9 C 87 % 1019,4 hPa 0,0 mm 2,4 km/h (1 Bft) W-SW 247 0 min 0,8 C 4,8 km/h (1 Bft)
26.03.2016 07:55 2,8 C 3,0 C 87 % 1019,4 hPa 0,0 mm 4,8 km/h (1 Bft) W-SW 247 0 min 0,9 C 6,0 km/h (2 Bft)
26.03.2016 08:00 2,9 C 3,0 C 87 % 1019,4 hPa 0,0 mm 5,7 km/h (1 Bft) S 180 0 min 1,0 C 0,0 km/h (0 Bft)
26.03.2016 08:05 3,1 C 3,3 C 87 % 1019,4 hPa 0,0 mm 3,0 km/h (1 Bft) SW 225 0 min 1,2 C 0,0 km/h (0 Bft)
26.03.2016 08:10 3,1 C 3,4 C 87 % 1019,4 hPa 0,0 mm 1,2 km/h (1 Bft) S-SO 157 0 min 1,2 C 0,0 km/h (0 Bft)
26.03.2016 08:15 3,2 C 3,5 C 87 % 1019,4 hPa 0,0 mm 0,3 km/h (0 Bft) O-SO 112 0 min 1,2 C 0,0 km/h (0 Bft)
26.03.2016 08:20 3,3 C 3,6 C 87 % 1019,4 hPa 0,0 mm 0,0 km/h (0 Bft) SO 135 0 min 1,3 C 0,0 km/h (0 Bft)
26.03.2016 08:25 3,5 C 4,5 C 87 % 1019,4 hPa 0,0 mm 1,5 km/h (1 Bft) W-SW 247 0 min 1,5 C 5,7 km/h (1 Bft)
26.03.2016 08:30 3,6 C 5,1 C 87 % 1019,4 hPa 0,0 mm 4,2 km/h (1 Bft) SW 225 0 min 1,6 C 8,6 km/h (2 Bft)
26.03.2016 08:35 3,9 C 5,4 C 87 % 1019,4 hPa 0,0 mm 5,7 km/h (1 Bft) SW 225 0 min 1,9 C 4,2 km/h (1 Bft)
26.03.2016 08:40 3,9 C 5,5 C 87 % 1019,4 hPa 0,0 mm 5,4 km/h (1 Bft) SW 225 0 min 1,9 C 8,9 km/h (2 Bft)
26.03.2016 08:45 3,8 C 4,3 C 86 % 1019,4 hPa 0,0 mm 8,0 km/h (2 Bft) SW 225 0 min 1,7 C 11,3 km/h (2 Bft)
26.03.2016 08:50 3,8 C 4,1 C 86 % 1019,6 hPa 0,0 mm 9,2 km/h (2 Bft) W-SW 247 0 min 1,7 C 3,9 km/h (1 Bft)
26.03.2016 08:55 4,2 C 5,2 C 86 % 1019,6 hPa 0,0 mm 6,9 km/h (2 Bft) SW 225 0 min 2,1 C 9,8 km/h (2 Bft)
26.03.2016 09:00 4,5 C 6,5 C 86 % 1019,6 hPa 0,0 mm 4,8 km/h (1 Bft) S-SO 157 0 min 2,4 C 0,0 km/h (0 Bft)
26.03.2016 09:05 4,8 C 8,3 C 86 % 1019,6 hPa 0,0 mm 5,4 km/h (1 Bft) W-SW 247 0 min 2,7 C 7,7 km/h (2 Bft)
26.03.2016 09:10 5,0 C 9,4 C 86 % 1019,9 hPa 0,0 mm 4,8 km/h (1 Bft) W-SW 247 5 min 2,9 C 6,6 km/h (2 Bft)
26.03.2016 09:15 5,6 C 11,2 C 85 % 1019,9 hPa 0,0 mm 4,8 km/h (1 Bft) S 180 5 min 3,3 C 6,3 km/h (2 Bft)
26.03.2016 09:20 6,0 C 12,1 C 84 % 1019,9 hPa 0,0 mm 4,8 km/h (1 Bft) W-SW 247 5 min 3,5 C 3,9 km/h (1 Bft)
26.03.2016 09:25 5,6 C 11,0 C 84 % 1019,9 hPa 0,0 mm 5,1 km/h (1 Bft) SW 225 5 min 3,1 C 6,6 km/h (2 Bft)
26.03.2016 09:30 5,4 C 10,0 C 84 % 1020,6 hPa 0,0 mm 4,5 km/h (1 Bft) S 180 5 min 2,9 C 4,5 km/h (1 Bft)
26.03.2016 09:35 5,4 C 9,2 C 84 % 1020,6 hPa 0,0 mm 2,4 km/h (1 Bft) S-SW 202 5 min 2,9 C 0,0 km/h (0 Bft)
26.03.2016 09:40 5,6 C 9,3 C 83 % 1020,6 hPa 0,0 mm 2,7 km/h (1 Bft) W-SW 247 5 min 2,9 C 6,9 km/h (2 Bft)
26.03.2016 09:45 6,0 C 10,7 C 82 % 1020,6 hPa 0,0 mm 3,0 km/h (1 Bft) W-SW 247 5 min 3,2 C 3,9 km/h (1 Bft)
26.03.2016 09:50 6,0 C 11,1 C 81 % 1020,6 hPa 0,0 mm 3,0 km/h (1 Bft) SW 225 5 min 3,0 C 6,9 km/h (2 Bft)
26.03.2016 09:55 6,1 C 10,1 C 81 % 1020,6 hPa 0,0 mm 4,8 km/h (1 Bft) NW 315 5 min 3,1 C 6,9 km/h (2 Bft)
26.03.2016 10:00 6,1 C 9,7 C 81 % 1020,6 hPa 0,0 mm 5,7 km/h (1 Bft) W-SW 247 5 min 3,1 C 6,3 km/h (2 Bft)
26.03.2016 10:05 6,1 C 9,5 C 80 % 1020,6 hPa 0,0 mm 3,9 km/h (1 Bft) SO 135 5 min 2,9 C 0,0 km/h (0 Bft)
26.03.2016 10:08 6,2 C 10,0 C 80 % 1020,3 hPa 0,0 mm 4,2 km/h (1 Bft) SW 225 3 min 3,0 C 6,9 km/h (2 Bft)
26.03.2016 10:11 6,2 C 10,0 C 80 % 1020,3 hPa 0,0 mm 4,2 km/h (1 Bft) SW 225 3 min 3,0 C 6,9 km/h (2 Bft)
26.03.2016 10:15 6,4 C 10,6 C 80 % 1020,3 hPa 0,0 mm 2,7 km/h (1 Bft) N-NW 337 4 min 3,2 C 0,0 km/h (0 Bft)
26.03.2016 10:20 7,4 C 12,7 C 80 % 1020,3 hPa 0,0 mm 2,1 km/h (1 Bft) S 180 5 min 4,2 C 6,3 km/h (2 Bft)
26.03.2016 10:25 7,5 C 14,0 C 78 % 1020,3 hPa 0,0 mm 3,6 km/h (1 Bft) W 270 5 min 3,9 C 3,0 km/h (1 Bft)
26.03.2016 10:30 7,9 C 14,8 C 78 % 1020,4 hPa 0,0 mm 4,8 km/h (1 Bft) W-NW 292 5 min 4,3 C 12,2 km/h (2 Bft)
26.03.2016 10:35 8,1 C 15,0 C 77 % 1020,4 hPa 0,0 mm 5,4 km/h (1 Bft) W 270 5 min 4,3 C 13,4 km/h (3 Bft)
26.03.2016 10:40 7,9 C 14,6 C 77 % 1020,4 hPa 0,0 mm 7,2 km/h (2 Bft) W-NW 292 5 min 4,1 C 11,0 km/h (2 Bft)
26.03.2016 10:45 8,1 C 14,4 C 76 % 1020,4 hPa 0,0 mm 7,7 km/h (2 Bft) NW 315 5 min 4,1 C 5,1 km/h (1 Bft)
26.03.2016 10:50 8,1 C 14,6 C 75 % 1020,6 hPa 0,0 mm 6,9 km/h (2 Bft) W 270 5 min 3,9 C 8,9 km/h (2 Bft)
26.03.2016 10:55 8,3 C 13,7 C 75 % 1020,6 hPa 0,0 mm 5,1 km/h (1 Bft) NW 315 5 min 4,1 C 8,9 km/h (2 Bft)
26.03.2016 11:00 8,6 C 14,8 C 74 % 1020,6 hPa 0,0 mm 7,5 km/h (2 Bft) N-NW 337 5 min 4,2 C 8,9 km/h (2 Bft)
26.03.2016 11:05 8,9 C 14,8 C 73 % 1020,6 hPa 0,0 mm 9,5 km/h (2 Bft) NO 45 5 min 4,3 C 8,6 km/h (2 Bft)
26.03.2016 11:10 9,0 C 14,9 C 72 % 1020,6 hPa 0,0 mm 8,9 km/h (2 Bft) NW 315 5 min 4,2 C 11,0 km/h (2 Bft)
26.03.2016 11:15 8,6 C 13,7 C 72 % 1020,6 hPa 0,0 mm 6,3 km/h (2 Bft) NW 315 5 min 3,8 C 5,1 km/h (1 Bft)
26.03.2016 11:20 8,7 C 14,3 C 71 % 1020,6 hPa 0,0 mm 5,4 km/h (1 Bft) W 270 5 min 3,7 C 7,7 km/h (2 Bft)
26.03.2016 11:25 8,6 C 13,6 C 70 % 1020,6 hPa 0,0 mm 5,4 km/h (1 Bft) W-SW 247 5 min 3,4 C 7,2 km/h (2 Bft)
26.03.2016 11:30 9,0 C 14,5 C 70 % 1020,6 hPa 0,0 mm 6,9 km/h (2 Bft) W 270 5 min 3,8 C 12,2 km/h (2 Bft)
26.03.2016 11:35 8,9 C 14,5 C 69 % 1020,6 hPa 0,0 mm 8,3 km/h (2 Bft) W-NW 292 5 min 3,5 C 9,2 km/h (2 Bft)
26.03.2016 11:40 9,0 C 14,1 C 68 % 1020,6 hPa 0,0 mm 8,9 km/h (2 Bft) NW 315 5 min 3,4 C 12,5 km/h (3 Bft)
26.03.2016 11:45 8,8 C 13,7 C 68 % 1020,6 hPa 0,0 mm 8,9 km/h (2 Bft) W 270 5 min 3,2 C 18,2 km/h (3 Bft)
26.03.2016 11:50 8,9 C 13,5 C 67 % 1020,5 hPa 0,0 mm 8,3 km/h (2 Bft) W-NW 292 5 min 3,1 C 11,6 km/h (2 Bft)
26.03.2016 11:55 9,5 C 14,7 C 67 % 1020,5 hPa 0,0 mm 7,2 km/h (2 Bft) W-SW 247 5 min 3,7 C 8,6 km/h (2 Bft)
26.03.2016 12:00 9,7 C 14,6 C 67 % 1020,5 hPa 0,0 mm 6,3 km/h (2 Bft) NW 315 5 min 3,9 C 9,2 km/h (2 Bft)
26.03.2016 12:05 9,8 C 14,0 C 65 % 1020,5 hPa 0,0 mm 8,0 km/h (2 Bft) W 270 5 min 3,5 C 9,8 km/h (2 Bft)
26.03.2016 12:10 9,7 C 13,1 C 65 % 1020,4 hPa 0,0 mm 9,8 km/h (2 Bft) NW 315 0 min 3,4 C 14,6 km/h (3 Bft)
26.03.2016 12:15 10,1 C 12,4 C 64 % 1020,4 hPa 0,0 mm 10,7 km/h (2 Bft) W-NW 292 0 min 3,6 C 11,0 km/h (2 Bft)
26.03.2016 12:20 10,7 C 13,0 C 64 % 1020,4 hPa 0,0 mm 9,2 km/h (2 Bft) W 270 0 min 4,2 C 11,6 km/h (2 Bft)
26.03.2016 12:25 10,3 C 13,8 C 59 % 1020,4 hPa 0,0 mm 8,6 km/h (2 Bft) W-SW 247 0 min 2,6 C 11,6 km/h (2 Bft)
26.03.2016 12:30 10,3 C 14,1 C 59 % 1020,3 hPa 0,0 mm 11,0 km/h (2 Bft) W 270 0 min 2,6 C 19,1 km/h (3 Bft)
26.03.2016 12:35 10,6 C 14,2 C 59 % 1020,3 hPa 0,0 mm 12,2 km/h (2 Bft) W 270 0 min 2,9 C 10,4 km/h (2 Bft)
26.03.2016 12:40 10,9 C 14,8 C 59 % 1020,3 hPa 0,0 mm 11,3 km/h (2 Bft) W 270 0 min 3,2 C 7,5 km/h (2 Bft)
26.03.2016 12:45 11,3 C 15,9 C 59 % 1020,3 hPa 0,0 mm 8,3 km/h (2 Bft) W 270 5 min 3,6 C 4,2 km/h (1 Bft)
26.03.2016 12:50 11,5 C 16,7 C 59 % 1020,3 hPa 0,0 mm 7,5 km/h (2 Bft) W-NW 292 5 min 3,8 C 11,9 km/h (2 Bft)
26.03.2016 12:55 10,8 C 16,1 C 58 % 1020,3 hPa 0,0 mm 5,7 km/h (1 Bft) SO 135 5 min 2,9 C 8,9 km/h (2 Bft)
26.03.2016 13:00 11,1 C 16,9 C 58 % 1020,3 hPa 0,0 mm 4,8 km/h (1 Bft) O-SO 112 5 min 3,2 C 5,7 km/h (1 Bft)
26.03.2016 13:05 11,1 C 17,9 C 58 % 1020,3 hPa 0,0 mm 3,0 km/h (1 Bft) S 180 5 min 3,2 C 7,2 km/h (2 Bft)
26.03.2016 13:10 11,4 C 18,4 C 58 % 1020,1 hPa 0,0 mm 5,1 km/h (1 Bft) SW 225 5 min 3,4 C 11,3 km/h (2 Bft)
26.03.2016 13:12 11,4 C 18,4 C 58 % 1020,1 hPa 0,0 mm 5,1 km/h (1 Bft) SW 225 2 min 3,4 C 11,3 km/h (2 Bft)
26.03.2016 13:15 11,6 C 19,0 C 58 % 1020,1 hPa 0,0 mm 6,9 km/h (2 Bft) W 270 3 min 3,6 C 6,0 km/h (2 Bft)
26.03.2016 13:20 12,1 C 19,2 C 58 % 1020,1 hPa 0,0 mm 5,7 km/h (1 Bft) N-NO 22 5 min 4,1 C 0,0 km/h (0 Bft)
26.03.2016 13:25 11,5 C 16,6 C 58 % 1020,1 hPa 0,0 mm 6,3 km/h (2 Bft) NW 315 5 min 3,5 C 12,8 km/h (3 Bft)
26.03.2016 13:30 11,0 C 15,2 C 58 % 1019,8 hPa 0,0 mm 7,5 km/h (2 Bft) W 270 5 min 3,1 C 7,5 km/h (2 Bft)
26.03.2016 13:35 10,9 C 13,9 C 58 % 1019,8 hPa 0,0 mm 6,6 km/h (2 Bft) NW 315 0 min 3,0 C 5,7 km/h (1 Bft)
26.03.2016 13:40 11,7 C 15,7 C 58 % 1019,8 hPa 0,0 mm 5,1 km/h (1 Bft) NW 315 0 min 3,7 C 5,7 km/h (1 Bft)
26.03.2016 13:45 12,6 C 17,5 C 57 % 1019,8 hPa 0,0 mm 5,1 km/h (1 Bft) O-NO 67 5 min 4,3 C 6,3 km/h (2 Bft)
26.03.2016 13:50 12,1 C 18,2 C 57 % 1019,2 hPa 0,0 mm 5,4 km/h (1 Bft) W-NW 292 5 min 3,8 C 4,5 km/h (1 Bft)
26.03.2016 13:55 11,1 C 16,0 C 57 % 1019,2 hPa 0,0 mm 5,4 km/h (1 Bft) NO 45 5 min 2,9 C 6,3 km/h (2 Bft)
26.03.2016 14:00 10,9 C 14,9 C 57 % 1019,2 hPa 0,0 mm 5,7 km/h (1 Bft) O 90 5 min 2,7 C 6,9 km/h (2 Bft)
26.03.2016 14:05 11,1 C 16,1 C 57 % 1019,2 hPa 0,0 mm 5,4 km/h (1 Bft) N-NO 22 5 min 2,9 C 8,3 km/h (2 Bft)
26.03.2016 14:10 11,3 C 16,8 C 57 % 1018,8 hPa 0,0 mm 5,7 km/h (1 Bft) N-NO 22 5 min 3,1 C 8,9 km/h (2 Bft)
26.03.2016 14:15 11,6 C 17,4 C 56 % 1018,8 hPa 0,0 mm 6,9 km/h (2 Bft) NO 45 5 min 3,1 C 9,8 km/h (2 Bft)
26.03.2016 14:20 11,8 C 17,6 C 56 % 1018,8 hPa 0,0 mm 6,3 km/h (2 Bft) O-NO 67 5 min 3,3 C 10,1 km/h (2 Bft)
26.03.2016 14:25 11,4 C 17,0 C 56 % 1018,8 hPa 0,0 mm 6,3 km/h (2 Bft) N 360 5 min 2,9 C 8,0 km/h (2 Bft)
26.03.2016 14:30 11,0 C 15,0 C 56 % 1018,5 hPa 0,0 mm 6,6 km/h (2 Bft) N 360 5 min 2,6 C 3,6 km/h (1 Bft)
26.03.2016 14:35 11,1 C 14,6 C 56 % 1018,5 hPa 0,0 mm 5,4 km/h (1 Bft) NO 45 0 min 2,7 C 12,8 km/h (3 Bft)
26.03.2016 14:40 11,1 C 15,0 C 56 % 1018,5 hPa 0,0 mm 5,7 km/h (1 Bft) N 360 0 min 2,7 C 10,4 km/h (2 Bft)
26.03.2016 14:45 11,7 C 15,6 C 56 % 1018,5 hPa 0,0 mm 7,7 km/h (2 Bft) O-NO 67 5 min 3,2 C 4,8 km/h (1 Bft)
26.03.2016 14:50 11,7 C 15,7 C 56 % 1018,0 hPa 0,0 mm 6,3 km/h (2 Bft) N-NO 22 5 min 3,2 C 6,9 km/h (2 Bft)
26.03.2016 14:55 11,4 C 14,7 C 56 % 1018,0 hPa 0,0 mm 5,7 km/h (1 Bft) N-NO 22 5 min 2,9 C 5,1 km/h (1 Bft)
26.03.2016 15:00 11,7 C 14,7 C 56 % 1018,0 hPa 0,0 mm 6,6 km/h (2 Bft) NO 45 0 min 3,2 C 14,0 km/h (3 Bft)
26.03.2016 15:05 11,6 C 15,1 C 55 % 1018,0 hPa 0,0 mm 7,7 km/h (2 Bft) O-SO 112 5 min 2,9 C 4,8 km/h (1 Bft)
26.03.2016 15:10 11,8 C 15,8 C 55 % 1017,8 hPa 0,0 mm 6,9 km/h (2 Bft) S 180 5 min 3,1 C 6,3 km/h (2 Bft)
26.03.2016 15:15 12,0 C 16,8 C 55 % 1017,8 hPa 0,0 mm 3,9 km/h (1 Bft) O-NO 67 5 min 3,2 C 0,0 km/h (0 Bft)
26.03.2016 15:20 11,9 C 16,7 C 55 % 1017,8 hPa 0,0 mm 6,0 km/h (2 Bft) O-NO 67 5 min 3,2 C 14,3 km/h (3 Bft)
26.03.2016 15:25 11,7 C 16,2 C 56 % 1017,8 hPa 0,0 mm 8,0 km/h (2 Bft) NO 45 5 min 3,2 C 18,2 km/h (3 Bft)
26.03.2016 15:30 11,6 C 15,8 C 56 % 1017,2 hPa 0,0 mm 11,0 km/h (2 Bft) O-NO 67 5 min 3,1 C 12,8 km/h (3 Bft)
26.03.2016 15:35 11,3 C 15,7 C 56 % 1017,2 hPa 0,0 mm 9,5 km/h (2 Bft) O 90 5 min 2,8 C 5,7 km/h (1 Bft)
26.03.2016 15:40 11,7 C 16,3 C 57 % 1017,2 hPa 0,0 mm 5,7 km/h (1 Bft) O-NO 67 5 min 3,5 C 7,5 km/h (2 Bft)
26.03.2016 15:45 11,7 C 16,7 C 57 % 1017,2 hPa 0,0 mm 5,1 km/h (1 Bft) O-SO 112 5 min 3,5 C 8,9 km/h (2 Bft)
26.03.2016 15:50 11,4 C 16,4 C 57 % 1017,2 hPa 0,0 mm 7,2 km/h (2 Bft) N-NO 22 5 min 3,2 C 10,1 km/h (2 Bft)
26.03.2016 15:55 11,3 C 15,7 C 57 % 1017,2 hPa 0,0 mm 9,5 km/h (2 Bft) NO 45 5 min 3,1 C 14,0 km/h (3 Bft)
26.03.2016 16:00 11,3 C 14,8 C 57 % 1017,2 hPa 0,0 mm 11,0 km/h (2 Bft) NO 45 5 min 3,1 C 12,8 km/h (3 Bft)
26.03.2016 16:05 11,1 C 14,0 C 56 % 1017,2 hPa 0,0 mm 10,1 km/h (2 Bft) O-SO 112 5 min 2,7 C 8,9 km/h (2 Bft)
26.03.2016 16:10 11,1 C 13,7 C 56 % 1017,1 hPa 0,0 mm 8,6 km/h (2 Bft) NO 45 5 min 2,7 C 6,9 km/h (2 Bft)
26.03.2016 16:13 11,1 C 13,7 C 56 % 1017,1 hPa 0,0 mm 8,6 km/h (2 Bft) NO 45 3 min 2,7 C 6,9 km/h (2 Bft)
26.03.2016 16:15 11,1 C 13,4 C 56 % 1017,1 hPa 0,0 mm 8,9 km/h (2 Bft) N-NO 22 0 min 2,7 C 11,9 km/h (2 Bft)
26.03.2016 16:20 11,1 C 13,5 C 57 % 1017,1 hPa 0,0 mm 8,3 km/h (2 Bft) NO 45 0 min 2,9 C 8,6 km/h (2 Bft)
26.03.2016 16:25 11,1 C 13,4 C 57 % 1017,1 hPa 0,0 mm 7,5 km/h (2 Bft) O-NO 67 0 min 2,9 C 7,7 km/h (2 Bft)
26.03.2016 16:30 11,1 C 13,2 C 57 % 1017,1 hPa 0,0 mm 6,9 km/h (2 Bft) W 270 0 min 2,9 C 4,8 km/h (1 Bft)
26.03.2016 16:35 11,0 C 12,8 C 57 % 1017,1 hPa 0,0 mm 6,9 km/h (2 Bft) NO 45 0 min 2,8 C 3,3 km/h (1 Bft)
26.03.2016 16:40 11,1 C 12,5 C 57 % 1017,1 hPa 0,0 mm 7,2 km/h (2 Bft) O-NO 67 0 min 2,9 C 20,0 km/h (4 Bft)
26.03.2016 16:45 11,0 C 11,6 C 57 % 1017,1 hPa 0,0 mm 9,5 km/h (2 Bft) O 90 0 min 2,8 C 10,4 km/h (2 Bft)
26.03.2016 16:50 10,9 C 11,3 C 57 % 1016,8 hPa 0,0 mm 10,1 km/h (2 Bft) O-SO 112 0 min 2,7 C 14,6 km/h (3 Bft)
26.03.2016 16:55 10,8 C 11,3 C 57 % 1016,8 hPa 0,0 mm 9,5 km/h (2 Bft) O-NO 67 0 min 2,6 C 9,5 km/h (2 Bft)
26.03.2016 17:00 10,6 C 11,8 C 57 % 1016,8 hPa 0,0 mm 9,5 km/h (2 Bft) NO 45 0 min 2,4 C 10,1 km/h (2 Bft)
26.03.2016 17:05 10,4 C 11,9 C 57 % 1016,8 hPa 0,0 mm 9,5 km/h (2 Bft) N-NO 22 0 min 2,3 C 11,6 km/h (2 Bft)
26.03.2016 17:10 10,3 C 11,0 C 57 % 1016,7 hPa 0,0 mm 10,4 km/h (2 Bft) O-NO 67 0 min 2,2 C 10,4 km/h (2 Bft)
26.03.2016 17:15 10,1 C 10,6 C 57 % 1016,7 hPa 0,0 mm 10,7 km/h (2 Bft) O-NO 67 0 min 2,0 C 11,0 km/h (2 Bft)
26.03.2016 17:20 10,0 C 11,0 C 57 % 1016,7 hPa 0,0 mm 10,1 km/h (2 Bft) NO 45 0 min 1,9 C 17,9 km/h (3 Bft)
26.03.2016 17:25 9,7 C 11,1 C 58 % 1016,7 hPa 0,0 mm 6,0 km/h (2 Bft) O-NO 67 0 min 1,8 C 7,5 km/h (2 Bft)
26.03.2016 17:30 9,4 C 10,7 C 58 % 1016,7 hPa 0,0 mm 4,8 km/h (1 Bft) NO 45 0 min 1,6 C 10,7 km/h (2 Bft)
26.03.2016 17:35 9,2 C 10,1 C 58 % 1016,7 hPa 0,0 mm 4,5 km/h (1 Bft) O-NO 67 0 min 1,4 C 8,0 km/h (2 Bft)
26.03.2016 17:40 8,9 C 10,0 C 59 % 1016,7 hPa 0,0 mm 3,6 km/h (1 Bft) O-SO 112 0 min 1,3 C 5,1 km/h (1 Bft)
26.03.2016 17:45 8,9 C 9,7 C 59 % 1016,7 hPa 0,0 mm 3,0 km/h (1 Bft) O-SO 112 0 min 1,3 C 0,0 km/h (0 Bft)
26.03.2016 17:50 8,7 C 9,3 C 59 % 1016,6 hPa 0,0 mm 2,4 km/h (1 Bft) SW 225 0 min 1,1 C 0,0 km/h (0 Bft)
26.03.2016 17:55 8,5 C 8,8 C 59 % 1016,6 hPa 0,0 mm 0,6 km/h (0 Bft) S-SO 157 0 min 1,0 C 0,0 km/h (0 Bft)
26.03.2016 18:00 8,2 C 8,7 C 59 % 1016,6 hPa 0,0 mm 0,6 km/h (0 Bft) S-SO 157 0 min 0,7 C 0,0 km/h (0 Bft)
26.03.2016 18:05 8,4 C 8,4 C 60 % 1016,6 hPa 0,0 mm 0,3 km/h (0 Bft) SO 135 0 min 1,1 C 0,0 km/h (0 Bft)
26.03.2016 18:10 8,3 C 8,2 C 60 % 1016,5 hPa 0,0 mm 0,0 km/h (0 Bft) S-SO 157 0 min 1,0 C 0,0 km/h (0 Bft)
26.03.2016 18:15 8,0 C 7,9 C 60 % 1016,5 hPa 0,0 mm 0,0 km/h (0 Bft) S-SO 157 0 min 0,7 C 0,0 km/h (0 Bft)
26.03.2016 18:20 7,9 C 7,8 C 61 % 1016,5 hPa 0,0 mm 0,3 km/h (0 Bft) O-SO 112 0 min 0,9 C 0,0 km/h (0 Bft)
26.03.2016 18:25 7,7 C 7,6 C 62 % 1016,5 hPa 0,0 mm 0,9 km/h (0 Bft) S-SO 157 0 min 0,9 C 0,0 km/h (0 Bft)
26.03.2016 18:30 7,5 C 7,4 C 63 % 1016,5 hPa 0,0 mm 0,6 km/h (0 Bft) S-SO 157 0 min 0,9 C 0,0 km/h (0 Bft)
26.03.2016 18:35 7,2 C 7,0 C 64 % 1016,5 hPa 0,0 mm 0,6 km/h (0 Bft) S-SO 157 0 min 0,9 C 0,0 km/h (0 Bft)
26.03.2016 18:40 7,0 C 6,8 C 65 % 1016,5 hPa 0,0 mm 0,6 km/h (0 Bft) SO 135 0 min 0,9 C 3,3 km/h (1 Bft)
26.03.2016 18:45 6,2 C 6,0 C 65 % 1016,5 hPa 0,0 mm 0,3 km/h (0 Bft) SO 135 0 min 0,1 C 0,0 km/h (0 Bft)
26.03.2016 18:50 5,9 C 5,6 C 67 % 1016,6 hPa 0,0 mm 0,3 km/h (0 Bft) S-SO 157 0 min 0,3 C 0,0 km/h (0 Bft)
26.03.2016 18:55 6,2 C 5,7 C 69 % 1016,6 hPa 0,0 mm 0,3 km/h (0 Bft) S-SO 157 0 min 0,9 C 0,0 km/h (0 Bft)
26.03.2016 19:00 6,1 C 5,6 C 69 % 1016,6 hPa 0,0 mm 0,3 km/h (0 Bft) S-SO 157 0 min 0,8 C 0,0 km/h (0 Bft)
26.03.2016 19:05 6,0 C 5,5 C 69 % 1016,6 hPa 0,0 mm 0,0 km/h (0 Bft) S-SO 157 0 min 0,8 C 4,2 km/h (1 Bft)
26.03.2016 19:10 5,9 C 5,4 C 70 % 1016,2 hPa 0,0 mm 0,3 km/h (0 Bft) O-SO 112 0 min 0,9 C 0,0 km/h (0 Bft)
26.03.2016 19:13 5,7 C 5,2 C 71 % 1016,2 hPa 0,0 mm 0,3 km/h (0 Bft) SO 135 0 min 0,9 C 0,0 km/h (0 Bft)
26.03.2016 19:14 5,7 C 5,2 C 71 % 1016,2 hPa 0,0 mm 0,3 km/h (0 Bft) SO 135 0 min 0,9 C 0,0 km/h (0 Bft)
26.03.2016 19:15 5,7 C 5,2 C 71 % 1016,2 hPa 0,0 mm 0,3 km/h (0 Bft) SO 135 0 min 0,9 C 0,0 km/h (0 Bft)
26.03.2016 19:20 5,2 C 4,8 C 71 % 1016,2 hPa 0,0 mm 0,0 km/h (0 Bft) NW 315 0 min 0,4 C 0,0 km/h (0 Bft)
26.03.2016 19:25 5,1 C 4,6 C 74 % 1016,2 hPa 0,0 mm 0,0 km/h (0 Bft) S-SO 157 0 min 0,9 C 0,0 km/h (0 Bft)
26.03.2016 19:30 5,2 C 4,6 C 74 % 1016,0 hPa 0,0 mm 0,0 km/h (0 Bft) S-SO 157 0 min 1,0 C 0,0 km/h (0 Bft)
26.03.2016 19:35 5,2 C 4,6 C 74 % 1016,0 hPa 0,0 mm 0,0 km/h (0 Bft) S-SO 157 0 min 1,0 C 0,0 km/h (0 Bft)
26.03.2016 19:40 5,0 C 4,5 C 74 % 1016,0 hPa 0,0 mm 0,0 km/h (0 Bft) S-SO 157 0 min 0,8 C 0,0 km/h (0 Bft)
26.03.2016 19:45 4,8 C 4,3 C 76 % 1016,0 hPa 0,0 mm 0,3 km/h (0 Bft) O-SO 112 0 min 0,9 C 0,0 km/h (0 Bft)
26.03.2016 19:50 4,2 C 3,8 C 75 % 1015,9 hPa 0,0 mm 0,3 km/h (0 Bft) N-NW 337 0 min 0,2 C 0,0 km/h (0 Bft)
26.03.2016 19:55 3,2 C 2,9 C 74 % 1015,9 hPa 0,0 mm 0,3 km/h (0 Bft) O-NO 67 0 min -1,0 C 0,0 km/h (0 Bft)
26.03.2016 20:00 3,0 C 2,6 C 74 % 1015,9 hPa 0,0 mm 0,0 km/h (0 Bft) SO 135 0 min -1,2 C 0,0 km/h (0 Bft)
26.03.2016 20:05 3,4 C 2,8 C 76 % 1015,9 hPa 0,0 mm 0,0 km/h (0 Bft) SO 135 0 min -0,4 C 0,0 km/h (0 Bft)
26.03.2016 20:10 3,1 C 2,6 C 77 % 1015,8 hPa 0,0 mm 0,0 km/h (0 Bft) O-NO 67 0 min -0,5 C 0,0 km/h (0 Bft)
26.03.2016 20:15 2,5 C 2,1 C 77 % 1015,8 hPa 0,0 mm 0,0 km/h (0 Bft) O-SO 112 0 min -1,1 C 0,0 km/h (0 Bft)
26.03.2016 20:20 2,9 C 2,3 C 78 % 1015,8 hPa 0,0 mm 0,0 km/h (0 Bft) S-SO 157 0 min -0,5 C 0,0 km/h (0 Bft)
26.03.2016 20:25 3,4 C 2,7 C 79 % 1015,8 hPa 0,0 mm 0,3 km/h (0 Bft) SO 135 0 min 0,1 C 0,0 km/h (0 Bft)
26.03.2016 20:30 2,7 C 2,3 C 79 % 1015,6 hPa 0,0 mm 0,3 km/h (0 Bft) O-NO 67 0 min -0,6 C 0,0 km/h (0 Bft)
26.03.2016 20:35 3,0 C 2,4 C 80 % 1015,6 hPa 0,0 mm 0,6 km/h (0 Bft) SO 135 0 min -0,1 C 3,0 km/h (1 Bft)
26.03.2016 20:40 3,3 C 2,7 C 83 % 1015,6 hPa 0,0 mm 0,6 km/h (0 Bft) O-SO 112 0 min 0,7 C 0,0 km/h (0 Bft)
26.03.2016 20:45 2,2 C 1,9 C 82 % 1015,6 hPa 0,0 mm 0,0 km/h (0 Bft) O-NO 67 0 min -0,5 C 0,0 km/h (0 Bft)
26.03.2016 20:50 1,8 C 1,4 C 81 % 1015,8 hPa 0,0 mm 0,0 km/h (0 Bft) O-NO 67 0 min -1,1 C 0,0 km/h (0 Bft)
26.03.2016 20:55 1,7 C 1,2 C 81 % 1015,8 hPa 0,0 mm 0,0 km/h (0 Bft) NW 315 0 min -1,2 C 0,0 km/h (0 Bft)
26.03.2016 21:00 1,3 C 0,9 C 80 % 1015,8 hPa 0,0 mm 0,0 km/h (0 Bft) N-NO 22 0 min -1,8 C 0,0 km/h (0 Bft)
26.03.2016 21:05 1,5 C 0,9 C 81 % 1015,8 hPa 0,0 mm 0,0 km/h (0 Bft) O-NO 67 0 min -1,4 C 0,0 km/h (0 Bft)
26.03.2016 21:10 1,4 C 0,8 C 82 % 1015,6 hPa 0,0 mm 0,0 km/h (0 Bft) O 90 0 min -1,3 C 0,0 km/h (0 Bft)
26.03.2016 21:15 1,0 C 0,5 C 81 % 1015,6 hPa 0,0 mm 0,0 km/h (0 Bft) O-NO 67 0 min -1,9 C 0,0 km/h (0 Bft)
26.03.2016 21:20 0,8 C 0,3 C 82 % 1015,6 hPa 0,0 mm 0,0 km/h (0 Bft) N-NO 22 0 min -1,9 C 0,0 km/h (0 Bft)
26.03.2016 21:25 0,7 C 0,2 C 82 % 1015,6 hPa 0,0 mm 0,0 km/h (0 Bft) N-NO 22 0 min -2,0 C 0,0 km/h (0 Bft)
26.03.2016 21:30 0,9 C 0,3 C 82 % 1015,4 hPa 0,0 mm 0,0 km/h (0 Bft) O-NO 67 0 min -1,8 C 0,0 km/h (0 Bft)
26.03.2016 21:35 1,3 C 0,6 C 84 % 1015,4 hPa 0,0 mm 0,0 km/h (0 Bft) NO 45 0 min -1,1 C 0,0 km/h (0 Bft)
26.03.2016 21:40 1,1 C 0,5 C 84 % 1015,4 hPa 0,0 mm 0,0 km/h (0 Bft) NO 45 0 min -1,3 C 0,0 km/h (0 Bft)
26.03.2016 21:45 0,6 C 0,2 C 84 % 1015,4 hPa 0,0 mm 0,0 km/h (0 Bft) N-NO 22 0 min -1,8 C 0,0 km/h (0 Bft)
26.03.2016 21:50 0,6 C 0,1 C 84 % 1015,1 hPa 0,0 mm 0,0 km/h (0 Bft) NO 45 0 min -1,8 C 0,0 km/h (0 Bft)
26.03.2016 21:55 0,7 C 0,2 C 84 % 1015,1 hPa 0,0 mm 0,0 km/h (0 Bft) O-NO 67 0 min -1,7 C 0,0 km/h (0 Bft)
26.03.2016 22:00 0,7 C 0,3 C 84 % 1015,1 hPa 0,0 mm 0,0 km/h (0 Bft) NW 315 0 min -1,7 C 0,0 km/h (0 Bft)
26.03.2016 22:05 1,1 C 0,7 C 85 % 1015,1 hPa 0,0 mm 0,0 km/h (0 Bft) NO 45 0 min -1,1 C 0,0 km/h (0 Bft)
26.03.2016 22:10 1,4 C 1,0 C 85 % 1014,7 hPa 0,0 mm 0,0 km/h (0 Bft) O-SO 112 0 min -0,8 C 0,0 km/h (0 Bft)
26.03.2016 22:13 1,1 C 0,8 C 85 % 1014,7 hPa 0,0 mm 0,0 km/h (0 Bft) N-NO 22 0 min -1,1 C 0,0 km/h (0 Bft)
26.03.2016 22:15 1,1 C 0,8 C 85 % 1014,7 hPa 0,0 mm 0,0 km/h (0 Bft) N-NO 22 0 min -1,1 C 0,0 km/h (0 Bft)
26.03.2016 22:20 1,0 C 0,7 C 85 % 1014,7 hPa 0,0 mm 0,0 km/h (0 Bft) S-SO 157 0 min -1,2 C 0,0 km/h (0 Bft)
26.03.2016 22:25 1,4 C 0,9 C 86 % 1014,7 hPa 0,0 mm 0,0 km/h (0 Bft) W 270 0 min -0,7 C 0,0 km/h (0 Bft)
26.03.2016 22:30 1,2 C 0,8 C 86 % 1014,5 hPa 0,0 mm 0,0 km/h (0 Bft) NO 45 0 min -0,9 C 0,0 km/h (0 Bft)
26.03.2016 22:35 1,5 C 1,1 C 86 % 1014,5 hPa 0,0 mm 0,3 km/h (0 Bft) NO 45 0 min -0,6 C 0,0 km/h (0 Bft)
26.03.2016 22:40 1,6 C 1,2 C 87 % 1014,5 hPa 0,0 mm 0,9 km/h (0 Bft) NW 315 0 min -0,3 C 0,0 km/h (0 Bft)
26.03.2016 22:45 1,2 C 0,9 C 86 % 1014,5 hPa 0,0 mm 0,3 km/h (0 Bft) W-SW 247 0 min -0,9 C 0,0 km/h (0 Bft)
26.03.2016 22:50 1,1 C 0,8 C 86 % 1013,9 hPa 0,0 mm 0,3 km/h (0 Bft) NW 315 0 min -1,0 C 0,0 km/h (0 Bft)
26.03.2016 22:55 1,2 C 0,8 C 86 % 1013,9 hPa 0,0 mm 1,5 km/h (1 Bft) W-NW 292 0 min -0,9 C 0,0 km/h (0 Bft)
26.03.2016 23:00 1,1 C 0,8 C 86 % 1013,9 hPa 0,0 mm 2,7 km/h (1 Bft) W-NW 292 0 min -1,0 C 5,4 km/h (1 Bft)
26.03.2016 23:05 1,4 C 1,0 C 87 % 1013,9 hPa 0,0 mm 3,3 km/h (1 Bft) NW 315 0 min -0,5 C 3,0 km/h (1 Bft)
26.03.2016 23:10 1,2 C 0,9 C 86 % 1013,7 hPa 0,0 mm 3,0 km/h (1 Bft) W 270 0 min -0,9 C 0,0 km/h (0 Bft)
26.03.2016 23:15 1,1 C 0,8 C 86 % 1013,7 hPa 0,0 mm 0,9 km/h (0 Bft) N-NW 337 0 min -1,0 C 0,0 km/h (0 Bft)
26.03.2016 23:20 1,1 C 0,8 C 86 % 1013,7 hPa 0,0 mm 0,9 km/h (0 Bft) W 270 0 min -1,0 C 6,3 km/h (2 Bft)
26.03.2016 23:25 1,2 C 0,8 C 86 % 1013,7 hPa 0,0 mm 2,1 km/h (1 Bft) O-NO 67 0 min -0,9 C 3,6 km/h (1 Bft)
26.03.2016 23:30 1,6 C 1,1 C 87 % 1013,9 hPa 0,0 mm 1,8 km/h (1 Bft) SO 135 0 min -0,3 C 0,0 km/h (0 Bft)
26.03.2016 23:35 1,8 C 1,2 C 87 % 1013,9 hPa 0,0 mm 0,6 km/h (0 Bft) O-NO 67 0 min -0,1 C 3,0 km/h (1 Bft)
26.03.2016 23:40 1,5 C 1,0 C 87 % 1013,9 hPa 0,0 mm 0,9 km/h (0 Bft) W-SW 247 0 min -0,4 C 0,0 km/h (0 Bft)
26.03.2016 23:45 1,7 C 1,0 C 87 % 1013,9 hPa 0,0 mm 1,2 km/h (1 Bft) SO 135 0 min -0,2 C 4,2 km/h (1 Bft)
26.03.2016 23:50 1,7 C 1,1 C 87 % 1013,6 hPa 0,0 mm 1,2 km/h (1 Bft) N-NO 22 0 min -0,2 C 0,0 km/h (0 Bft)
26.03.2016 23:55 1,2 C 0,7 C 87 % 1013,6 hPa 0,0 mm 0,9 km/h (0 Bft) W 270 0 min -0,7 C 0,0 km/h (0 Bft)
_ Min-Zeit 21:50 21:50 15:20 23:55 - 22:30 - - - 21:25 23:55
Minimum _ 0,6 C 0,1 C 55 % 1013,6 hPa - 0,0 km/h (0 Bft) - - - -2,0 C 0,0 km/h (0 Bft)
_ Max-Zeit 13:45 13:20 07:30 11:45 07:05 01:35 - - 16:10 11:05 00:45
Maximum _ 12,6 C 19,2 C 92 % 1020,6 hPa 0,7 mm 15,5 km/h
W-SW (3 Bft)
- - 5 min 4,3 C 40,5 km/h
W (6 Bft)
Durchschnitt _ 5,5 C 6,8 C 78 % 1017,5 hPa #14,4 mm 5,2 km/h (1 Bft) W - #6:08 h 1,7 C 6,8 km/h (2 Bft)